Location: *
(49.3500°N, 12.6000°E)
Time: 20:32:53
(UTC+00:00)

STARLINK-41 - Pass Details

Date: 18 October 2019
Orbit: 549 x 551 km, 53.0° (Epoch: 17 November)

Event Time Altitude Azimuth Distance (km) Brightness Sun altitude
Rises 17:24:36 0° 261° (W) 2,714 9.1 -12.2°
Reaches altitude 10° 17:26:51 10° 265° (W) 1,822 7.8 -12.6°
Maximum altitude 17:30:57 61° 346° (NNW) 627 3.9 -13.2°
Enters shadow 17:33:46 19° 63° (ENE) 1,330 5.0 -13.7°
